Погода Алматы

Погода Алматы : погода сейчас, прогноз погоды и архив. Всё, что Вы хотите узнать о погоде Алматы!

Поиск расширенной информации на нашем сайте:

Другие новости

Новости СМИ2

Главная страница сайта

Новости сайта

03.07.2017

Напоминаем, что на нашем специализированном сайте Метеоцентр.Азия вы можете получить высокодетализированные автоматические прогнозы погоды по пунктам России, СНГ и мира в авиационном формате (включающие направление и скорость ветра, видимость, явления погоды, количество и форму облачности, нижнюю и верхнюю границу облачности).


Погода Алматы - сегодня

Время (UTC), дата Ветер
(°,м/с) 
Видим.   Явления Облачность Т
(°С)
Тd
(°С)
f(%) Тe
(°С)
Pmin
(гПа)
dP
(гПа)
Po
(мм)
O2
(г/м3)
Тmin Tmax R s Состояние
почвы
06 14.10.18 тихо ()   10 км    9/3 600 м кучево-дожд., средняя, верхняя 
[Cb cap|Ac trans|Ci fib]
+5.4 -2.3 58 +5  1028.3  0.4  696  275  +0.9       
09 14.10.18 010 (С) 10 км    8/3 600 м средняя, верхняя 
[Cu med, cong|Ac trans|Ci fib]
+8.3 -1.2 51 +9  1024.2  -2.6  694  271           
12 14.10.18 020 (С) 10 км    10/3 600 м средняя, верхняя 
[Cu med, cong|Ac trans|Ci fib]
+5.7 -0.3 65 +7  1026.1  0.9  695  274           
15 14.10.18 тихо ()   н/о    10/0 средняя, верхняя 
[Ac trans|Ci fib]
+4 +0.5 78 +4  1026.2  -0.6  694  275    +8.9       
18 14.10.18 тихо ()   н/о    10/0 верхняя 
[Ci sp]
+3.9 +0.4 78 +4  1023.9  -2  693  275    +8.9       
21 14.10.18 тихо ()   н/о    10/10 600 м кучево-дожд. 
[Cb cap]
+4 +0.2 76 +4  1021.1  -2.6  691  274           
00 15.10.18 тихо () {05}  н/о    10/10 600 м кучево-дожд. 
[Cb cap]
+3.8 +1.6 86 +4  1018.3  -2.5  689  273           
03 15.10.18 тихо ()   20000 м    10/4 600 м кучево-дожд., средняя 
[Cb cap|Ac trans]
+4.3 +2.2 86 +4  1016.3  -1.7  688  272           
06 15.10.18 тихо ()   20000 м    10/5 600 м кучево-дожд., средняя 
[Cb cap|Ac trans]
+5.9 +0 66 +6  1013.5  -1.9  686  270  +3.3         
09 15.10.18 тихо ()   20000 м    10/6 600 м кучево-дожд., средняя 
[Cb cap|As trans]
+8.5 +1.6 62 +9  1009.5  -2.8  684  267           
12 15.10.18 тихо ()   10 км    10/4 600 м кучево-дожд., средняя 
[Cb cap|As trans]
+7.5 +2.5 71 +8  1010.3  0.4  684  268           
15 15.10.18 тихо ()   н/о    10/5 600 м кучево-дожд., средняя 
[Cb cap|As trans]
+6.1 +2.4 77 +6  1012.7  1.7  686  270    +8.9       
18 15.10.18 тихо ()   н/о    10/6 1000 м кучево-дожд., средняя 
[Cb cap|Ac As]
+7.1 +0.3 62 +7  1016.4  3.6  688  270    +8.9       
21 15.10.18 тихо ()   н/о  ливневой дождь  10/10 600 м кучево-дожд. 
[Cb cap]
+5.9 +3.2 83 +6  1018.8  1.9  690  271           
00 16.10.18 тихо () {04}  н/о  ливневой дождь  10/10 600 м кучево-дожд. 
[Cb cap]
+1.5 +0.7 94 +2  1022.4  1.6  691  277           
03 16.10.18 тихо ()   10 км  слаб. ливневой дождь со снегом  10/10 600 м кучево-дожд. 
[Cb cap]
+0.9 +0.1 94 +1  1024.5  1.7  692  278           
06 16.10.18 тихо ()   10 км  в посл. час ливневой снег  10/8 600 м кучево-дожд., средняя 
[Cb cap|Ac As]
+4.5 +1.3 80 +5  1021.7  -1.2  691  274  +0       
09 16.10.18 020 (С) 10 км    10/10 600 м кучево-дожд. 
[Cb cap]
+3.9 +0.1 76 +5  1021.9  -0.1  691  274           
15 16.10.18 140 (ЮВ) н/о  слаб. ливневой снег  10/10 600 м кучево-дожд. 
[Cb cap]
+1.7 -0.4 86 +2  1027  2.2  694  278    +5       
18 16.10.18 070 (В) н/о  слаб. ливневой снег  10/10 600 м кучево-дожд. 
[Cb cap]
+0.9 -1 87 +2  1028.7  1.2  695  279    +0.5  0.4     
21 16.10.18 200 (Ю) н/о  слаб. ливневой снег  10/10 600 м кучево-дожд. 
[Cb cap]
-0.1 -0.7 96 +1  1030.5  1.3  696  281           
00 17.10.18 тихо () {04}  н/о  {ливн. осадки}  10/10 600 м кучево-дожд. 
[Cb cap]
+0.5 -1.4 87 +1  1031.6  1.2  697  280           
03 17.10.18 тихо ()   4000 м  слаб. ливневой снег  10/10 600 м кучево-дожд. 
[Cb cap]
+0.6 -1.6 85 +1  1034  2.1  699  281        равномерный
мокрый или
старый снег
100% 
06 17.10.18 тихо ()   4000 м  слаб. ливневой снег  10/10 600 м кучево-дожд. 
[Cb cap]
+0.3 -1.1 90 1034.6  0.5  699  281  -0    0.7     
09 17.10.18 тихо ()   10 км  слаб. ливневой снег  10/10 600 м кучево-дожд. 
[Cb cap]
+0.7 -1.2 87 +1  1034.8  0.3  699  281           
Время (UTC), дата Ветер
(°,м/с) 
Видим.   Явления Облачность Т
(°С)
Тd
(°С)
f(%) Тe
(°С)
Pmin
(гПа)
dP
(гПа)
Po
(мм)
O2
(г/м3)
Тmin Tmax R s Состояние
почвы

Для получения пояснительной информации подведите курсор к названию столбца.

ПОГОДА Алматы - архив

Всё, что Вы хотите узнать о погоде Алматы - удобно и подробно!

Выберите нужную дату (начиная с 1 января 2015* года) и нажмите кнопку "Найти".
Будут отображены архивные сводки погоды по пункту Алматы, начиная с указанной даты.


Отображать данные в формате CSV (для использования в таблицах Excel)


Внимание! Наш архив погоды предназначен исключительно для личного некоммерческого использования в познавательных целях. Если Вам необходимы официальные справки о состоянии погоды (для производственных, юридических, коммерческих и т.п. целей), обращайтесь в органы Росгидромета.

*Примечание: данная дата относится к архиву по метеостанциям СССР (Россия, СНГ, Балтия).
Архив по метеостанциям Зарубежной Европы и Азии (кроме Китая) хранится 10 дней, по другим регионам земного шара (Китай, Африка, Америка, Австралия, Океания) - 1 день.

Алматы - район местоположения метеостанции


Название, широта, долгота, высота метеостанции:
Алматы (город) 43.2°ш. 76.9°д. 851 м над ур. моря [Казахстан]

Дополнительная информация

В oтличие oт бoльшинства пoгoдных сайтoв мы публикуем пoдрoбную метеoинфoрмацию в детальнoм прoфессиoнальнoм фoрмате.

Характеристики температуры и влажнoсти вoздуха измеряются на высoте 2 м в тени вдали oт зданий и деревьев.
Скoрoсть ветра измеряется на высoте 10 м (на урoвне рoста челoвека скoрoсть ветра ниже в 1.5-2 раза). Если метеoстанция нахoдится в гoрoде или в лесу, тo скoрoсть ветра занижена на 2-4 м/с пo сравнению с oткрытым местoм. Скoрoсть ветра над акватoриями крупных рек и oзёр, а также на вершинах хoлмoв на 2-5 м/с выше, чем в oбычных услoвиях.
Атмoсфернoе давление в разных тoчках местнoсти мoжет значительнo oтличаться oт давления на метеoстанции, в зависимoсти oт услoвий рельефа (при пoдъёме на 10 м давление пoнижается примернo на 1 мм рт.ст.).